Burnet, TX

8:27 AM CST on February 07, 2016 (GMT -0600)
Burnet Municipal-Craddock

Weather History for KBMQ - November, 2012

Change the Weather History Date:

Saturday, November 3, 2012

  Actual Average Record
Temperature  
Mean Temperature 72 °F -  
Max Temperature 82 °F 68 °F 82 °F (2012)
Min Temperature 63 °F 49 °F 34 °F (1999)
Cooling Degree Days 8    
Growing Degree Days 22 (Base 50)    
Moisture  
Dew Point 61 °F    
Average Humidity 75    
Maximum Humidity 96    
Minimum Humidity 38    
Precipitation  
Precipitation 0.00 in - - ()
Sea Level Pressure  
Sea Level Pressure 30.05 in    
Wind  
Wind Speed 5 mph (South)    
Max Wind Speed 10 mph    
Max Gust Speed 17 mph    
Visibility 9 miles    
Events      
Averages and records for this station are not official NWS values.
T = Trace of Precipitation, MM = Missing Value Source: NWS Daily Summary

Daily Weather History Graph

Daily Weather History Graph

Search for Another Location

Airport or City:

Trip Planner

Search our weather history database for the weather conditions in past years. The results will help you decide how hot, cold, wet, or windy it might be!

Date:

Astronomy

Nov. 03, 2012 Rise Set
Actual Time 7:49 AM CDT 6:42 PM CDT
Civil Twilight 7:24 AM CDT 7:07 PM CDT
Nautical Twilight 6:56 AM CDT 7:36 PM CDT
Astronomical Twilight 6:27 AM CDT 8:04 PM CDT
Moon 10:31 PM CDT (11/3) 11:48 AM CDT (11/3)
Length of Visible Light 11h 42m
Length of Day
10h 52m
Waning Gibbous, 80% of the Moon is Illuminated
Nov 3
Waning Gibbous
Nov 6
Last Quarter
Nov 13
New
Nov 20
First Quarter
Nov 28
Full

Hourly Weather History & Observations

Time (CDT) Temp. Heat Index Dew Point Humidity Pressure Visibility Wind Dir Wind Speed Gust Speed Precip Events Conditions
12:53 AM 64.9 °F - 57.9 °F 78% 29.99 in 10.0 mi Calm Calm - N/A   Clear
1:53 AM 64.0 °F - 57.9 °F 80% 29.99 in 10.0 mi SSE 3.5 mph - N/A   Clear
2:53 AM 63.0 °F - 59.0 °F 87% 29.99 in 10.0 mi South 4.6 mph - N/A   Clear
3:53 AM 63.0 °F - 60.1 °F 90% 29.98 in 10.0 mi South 5.8 mph - N/A   Partly Cloudy
4:53 AM 64.9 °F - 63.0 °F 93% 29.98 in 10.0 mi South 9.2 mph - N/A   Mostly Cloudy
5:24 AM 64.9 °F - 63.0 °F 93% 30.03 in 10.0 mi South 5.8 mph - N/A   Partly Cloudy
5:53 AM 64.0 °F - 62.1 °F 93% 30.00 in 9.0 mi SSE 3.5 mph - N/A   Clear
6:53 AM 64.0 °F - 62.1 °F 93% 30.01 in 7.0 mi Variable 3.5 mph - N/A   Clear
7:40 AM 64.0 °F - 63.0 °F 96% 30.06 in 6.0 mi South 5.8 mph - N/A   Scattered Clouds
7:49 AM 64.4 °F - 62.6 °F 94% 30.07 in 6.0 mi South 9.2 mph - N/A   Mostly Cloudy
7:53 AM 64.9 °F - 63.0 °F 93% 30.03 in 7.0 mi South 8.1 mph - N/A   Mostly Cloudy
8:17 AM 66.0 °F - 64.0 °F 93% 30.08 in 7.0 mi South 5.8 mph - N/A   Overcast
8:39 AM 66.0 °F - 64.0 °F 93% 30.10 in 6.0 mi Calm Calm - N/A   Overcast
8:53 AM 66.0 °F - 64.0 °F 93% 30.06 in 7.0 mi SSE 3.5 mph - N/A   Mostly Cloudy
9:17 AM 68.0 °F - 64.0 °F 87% 30.11 in 8.0 mi SSE 3.5 mph - N/A   Partly Cloudy
9:53 AM 70.0 °F - 64.0 °F 81% 30.08 in 10.0 mi South 6.9 mph - N/A   Scattered Clouds
10:00 AM 69.1 °F - 64.0 °F 84% 30.12 in 9.0 mi SSW 6.9 mph - N/A   Mostly Cloudy
10:50 AM 71.6 °F - 62.6 °F 73% 30.13 in 10.0 mi SSW 6.9 mph - N/A   Partly Cloudy
10:53 AM 72.0 °F - 63.0 °F 73% 30.09 in 10.0 mi SW 9.2 mph - N/A   Partly Cloudy
11:30 AM 73.9 °F - 63.0 °F 68% 30.13 in 10.0 mi South 9.2 mph - N/A   Mostly Cloudy
11:37 AM 73.9 °F - 63.0 °F 68% 30.13 in 10.0 mi SSW 10.4 mph - N/A   Partly Cloudy
11:53 AM 73.9 °F - 63.0 °F 68% 30.09 in 10.0 mi SSW 9.2 mph - N/A   Scattered Clouds
12:53 PM 78.1 °F - 62.1 °F 58% 30.06 in 10.0 mi SSW 9.2 mph - N/A   Clear
1:53 PM 80.1 °F 80.9 °F 60.1 °F 50% 30.03 in 10.0 mi South 10.4 mph - N/A   Partly Cloudy
2:53 PM 82.0 °F 82.0 °F 57.9 °F 44% 30.00 in 10.0 mi South 9.2 mph - N/A   Scattered Clouds
3:53 PM 82.0 °F 81.6 °F 55.9 °F 41% 29.99 in 10.0 mi South 9.2 mph - N/A   Partly Cloudy
4:53 PM 80.1 °F - 52.0 °F 38% 29.98 in 10.0 mi SW 3.5 mph - N/A   Clear
5:53 PM 78.1 °F - 55.0 °F 45% 29.98 in 10.0 mi Calm Calm - N/A   Clear
6:53 PM 73.9 °F - 55.9 °F 53% 30.01 in 10.0 mi Calm Calm - N/A   Clear
7:53 PM 71.1 °F - 59.0 °F 66% 30.04 in 10.0 mi ESE 8.1 mph 17.3 mph N/A   Clear
8:53 PM 69.1 °F - 59.0 °F 70% 30.07 in 10.0 mi SE 4.6 mph - N/A   Clear
9:53 PM 66.9 °F - 57.9 °F 73% 30.05 in 10.0 mi SE 4.6 mph - N/A   Clear
10:53 PM 66.9 °F - 57.9 °F 73% 30.07 in 10.0 mi SSW 3.5 mph - N/A   Partly Cloudy
11:53 PM 64.9 °F - 57.9 °F 78% 30.06 in 10.0 mi South 3.5 mph - N/A   Clear